TimeEDT,TemperatureF,Dew PointF,Humidity,Sea Level PressureIn,VisibilityMPH,Wind Direction,Wind SpeedMPH,Gust SpeedMPH,PrecipitationIn,Events,Conditions,WindDirDegrees,DateUTC
12:53 AM,46.9,36.0,66,29.96,10.0,Calm,Calm,-,N/A,,Clear,0,2012-10-21 04:53:00
1:53 AM,51.1,35.1,54,29.96,10.0,Calm,Calm,-,N/A,,Clear,0,2012-10-21 05:53:00
2:53 AM,46.9,37.0,68,29.98,10.0,Calm,Calm,-,N/A,,Clear,0,2012-10-21 06:53:00
3:53 AM,46.9,37.0,68,29.98,10.0,Calm,Calm,-,N/A,,Clear,0,2012-10-21 07:53:00
4:53 AM,46.0,37.0,71,30.00,10.0,Calm,Calm,-,N/A,,Clear,0,2012-10-21 08:53:00
6:53 AM,46.0,37.0,71,30.05,10.0,Calm,Calm,-,N/A,,Clear,0,2012-10-21 10:53:00
7:53 AM,48.0,36.0,63,30.08,10.0,West,3.5,-,N/A,,Clear,270,2012-10-21 11:53:00
8:53 AM,51.1,39.0,63,30.11,10.0,Calm,Calm,-,N/A,,Clear,0,2012-10-21 12:53:00
9:53 AM,55.9,41.0,57,30.11,10.0,Calm,Calm,-,N/A,,Clear,0,2012-10-21 13:53:00
10:53 AM,60.1,37.9,44,30.12,10.0,North,6.9,-,N/A,,Clear,360,2012-10-21 14:53:00
11:53 AM,62.1,37.9,41,30.12,10.0,Variable,3.5,-,N/A,,Clear,0,2012-10-21 15:53:00
12:53 PM,62.1,37.0,39,30.12,10.0,NW,5.8,-,N/A,,Clear,310,2012-10-21 16:53:00
1:53 PM,64.0,37.0,37,30.08,10.0,Variable,4.6,-,N/A,,Clear,0,2012-10-21 17:53:00
2:53 PM,64.9,37.0,36,30.07,10.0,Variable,4.6,-,N/A,,Clear,0,2012-10-21 18:53:00
3:53 PM,66.0,37.0,34,30.06,10.0,Variable,4.6,-,N/A,,Clear,0,2012-10-21 19:53:00
4:53 PM,66.0,37.0,34,30.06,10.0,Variable,3.5,-,N/A,,Clear,0,2012-10-21 20:53:00
5:53 PM,64.0,37.0,37,30.06,10.0,SSW,3.5,-,N/A,,Clear,200,2012-10-21 21:53:00
6:53 PM,60.1,37.9,44,30.09,10.0,Calm,Calm,-,N/A,,Clear,0,2012-10-21 22:53:00
7:53 PM,57.9,39.0,49,30.11,10.0,Calm,Calm,-,N/A,,Clear,0,2012-10-21 23:53:00
8:53 PM,57.0,39.0,51,30.12,10.0,Calm,Calm,-,N/A,,Clear,0,2012-10-22 00:53:00
9:53 PM,51.1,39.9,66,30.13,10.0,Calm,Calm,-,N/A,,Clear,0,2012-10-22 01:53:00
10:53 PM,46.9,39.9,77,30.14,10.0,Calm,Calm,-,N/A,,Clear,0,2012-10-22 02:53:00
11:53 PM,48.0,39.0,71,30.14,10.0,NNW,4.6,-,N/A,,Clear,340,2012-10-22 03:53:00